MDT,Max TemperatureF,Mean TemperatureF,Min TemperatureF,Max Dew PointF,MeanDew PointF,Min DewpointF,Max Humidity, Mean Humidity, Min Humidity, Max Sea Level PressureIn, Mean Sea Level PressureIn, Min Sea Level PressureIn, Max VisibilityMiles, Mean VisibilityMiles, Min VisibilityMiles, Max Wind SpeedMPH, Mean Wind SpeedMPH, Max Gust SpeedMPH,PrecipitationIn, CloudCover, Events, WindDirDegrees
2013-6-1,70,58,46,51,46,42,93,67,40,30.21,30.15,30.09,10,10,10,13,8,17,0.00,3,,339
2013-6-2,74,61,47,53,46,41,86,62,38,30.08,29.89,29.71,10,10,6,23,9,32,0.10,1,Rain-Thunderstorm,98
2013-6-3,65,57,48,52,48,43,100,76,52,29.89,29.72,29.60,10,9,4,33,18,44,0.29,7,Rain,229
2013-6-4,55,51,46,47,44,42,100,83,66,30.26,30.10,29.90,10,10,5,24,12,31,0.02,8,Rain,319
2013-6-5,66,55,43,46,43,39,100,70,40,30.25,30.18,30.07,10,10,10,10,4,15,0.00,4,,189
2013-6-6,77,63,49,54,48,42,80,59,38,30.06,30.01,29.96,10,10,10,10,6,14,0.00,0,,159
2013-6-7,79,65,51,57,54,48,93,68,42,29.96,29.78,29.59,10,10,10,18,6,23,0.01,1,Thunderstorm,97
2013-6-8,75,65,54,57,50,42,93,62,31,29.89,29.76,29.58,10,10,7,30,13,43,0.03,2,Rain-Thunderstorm,318
2013-6-9,83,67,51,54,49,44,89,59,28,29.90,29.78,29.62,10,10,10,14,7,21,0.00,0,,156
2013-6-10,79,68,56,55,50,45,80,56,32,29.87,29.77,29.62,10,10,10,20,9,24,T,0,,38
2013-6-11,81,69,57,59,53,47,90,60,30,29.93,29.83,29.73,10,8,0,28,13,38,1.10,3,Fog-Rain-Thunderstorm,70
2013-6-12,73,66,58,59,55,53,97,77,57,30.09,30.02,29.89,10,10,10,20,11,25,T,6,,113
2013-6-13,80,71,61,61,56,53,78,63,48,30.03,29.84,29.66,10,10,10,29,13,37,0.40,1,Rain,143
2013-6-14,71,63,54,61,52,44,93,67,40,29.97,29.87,29.68,10,9,2,40,13,47,0.25,4,Rain-Thunderstorm,289
2013-6-15,77,62,47,47,42,37,80,52,24,30.01,29.96,29.89,10,10,10,20,9,25,0.00,0,,257
2013-6-16,78,64,49,50,48,47,89,64,38,30.08,30.02,29.96,10,10,10,17,7,23,0.00,0,,330
2013-6-17,78,65,51,53,50,48,89,64,39,30.12,30.07,30.00,10,10,10,10,5,15,0.00,0,,29
2013-6-18,88,72,56,57,54,50,86,60,34,30.00,29.86,29.72,10,10,10,22,11,26,0.00,0,,126
2013-6-19,91,77,62,60,54,48,67,49,31,29.70,29.55,29.39,10,10,10,29,16,36,0.00,1,Thunderstorm,140
2013-6-20,78,67,56,57,45,34,93,58,23,29.90,29.79,29.53,10,10,10,24,9,32,0.00,0,,308
2013-6-21,78,68,57,53,49,43,80,58,35,29.99,29.93,29.89,10,10,10,21,11,26,0.01,4,Rain-Thunderstorm,46
2013-6-22,65,58,51,55,53,49,93,80,67,30.00,29.94,29.88,10,9,2,21,8,24,0.29,6,Rain-Thunderstorm,351
2013-6-23,77,64,50,52,48,43,93,61,29,29.90,29.81,29.73,10,10,10,15,7,21,0.01,0,,228
2013-6-24,88,71,54,62,56,49,86,61,36,29.73,29.60,29.48,10,10,10,14,7,20,0.00,0,,98
2013-6-25,85,75,65,58,54,45,73,50,26,29.75,29.67,29.50,10,10,10,24,8,30,0.00,1,,287
2013-6-26,85,71,57,57,52,47,87,57,27,29.99,29.85,29.73,10,10,10,22,8,28,T,1,Rain,299
2013-6-27,84,72,60,56,51,47,78,53,27,30.18,30.07,29.99,10,10,10,18,9,25,0.00,1,,305
2013-6-28,89,72,55,57,53,50,93,61,29,30.19,30.14,30.09,10,10,10,16,7,21,0.00,0,,344
2013-6-29,86,73,59,55,52,47,78,54,29,30.15,30.11,30.04,10,10,10,17,6,21,0.00,0,,62
2013-6-30,87,74,60,57,53,51,78,55,32,30.11,30.09,30.06,10,10,10,16,7,21,0.00,0,,78